This is the latest recevied weather packets stored in our database for station/object BRIVER. If no packets are shown the sender has not sent any weather packets the latest 10 day(s).
| Time | Temp. | Humidity | Pressure | Rain* | Wind** | Luminosity | Snow |
|---|---|---|---|---|---|---|---|
| 1777340745 | 7.22° C | 79% | 1017.7 hPa | 0 mm | - | - | - |
| 1777340445 | 7.78° C | 78% | 1017.8 hPa | 0 mm | - | - | - |
| 1777340266 | 7.22° C | 76% | 1017.8 hPa | 0 mm | - | - | - |
| 1777340145 | 7.22° C | 78% | 1017.8 hPa | 0 mm | - | - | - |
| 1777339845 | 7.22° C | 76% | 1017.7 hPa | 0 mm | - | - | - |
| 1777339726 | 7.22° C | 75% | 1017.7 hPa | 0 mm | - | - | - |
| 1777339545 | 7.22° C | 77% | 1017.7 hPa | 0 mm | - | - | - |
| 1777339245 | 7.78° C | 74% | 1017.7 hPa | 0 mm | - | - | - |
| 1777339186 | 7.78° C | 77% | 1017.7 hPa | 0 mm | - | - | - |
| 1777338945 | 7.78° C | 75% | 1017.5 hPa | 0 mm | - | - | - |
| 1777338645 | 7.78° C | 76% | 1017.6 hPa | 0 mm | - | - | - |
| 1777338345 | 7.78° C | 75% | 1017.5 hPa | 0 mm | - | - | - |
| 1777338106 | 7.78° C | 73% | 1017.4 hPa | 0 mm | - | - | - |
| 1777338045 | 7.78° C | 73% | 1017.5 hPa | 0 mm | - | - | - |
| 1777337745 | 7.78° C | 75% | 1017.5 hPa | 0 mm | - | - | - |
| 1777337566 | 7.78° C | 71% | 1017.5 hPa | 0 mm | - | - | - |
| 1777337445 | 7.78° C | 75% | 1017.5 hPa | 0 mm | - | - | - |
| 1777337145 | 7.78° C | 73% | 1017.5 hPa | 0 mm | - | - | - |
| 1777336845 | 7.78° C | 73% | 1017.3 hPa | 0 mm | - | - | - |
| 1777336545 | 8.33° C | 71% | 1017.3 hPa | 0 mm | - | - | - |
| 1777336486 | 8.33° C | 72% | 1017.3 hPa | 0 mm | - | - | - |
| 1777336245 | 8.33° C | 71% | 1017.2 hPa | 0 mm | - | - | - |
| 1777335945 | 8.33° C | 73% | 1017.1 hPa | 0 mm | - | - | - |
| 1777335645 | 7.78° C | 70% | 1017.2 hPa | 0 mm | - | - | - |
| 1777335406 | 8.33° C | 71% | 1017.1 hPa | 0 mm | - | - | - |
* Rain latest hour (hover to see other rain measurements)
** Current wind speed in m/s (hover to see current wind gust speed)